| time (UTC) | temp C | wind direction | speed KPH | gust KPH | rain 1hr cm | rain 24hr cm | rain mn cm | humidity % | barometer mb |
| 20260504050016 | 11 | 180 | 1.6 | 6.4 | 0.00 | 0.00 | 0.00 | 46 | 1005.8 |
| 20260504043015 | 12 | 0.0 | 4.8 | 0.00 | 0.00 | 0.00 | 44 | 1005.8 | |
| 20260504040015 | 13 | 23 | 1.6 | 4.8 | 0.00 | 0.00 | 0.00 | 41 | 1006.5 |
| 20260504033015 | 14 | 23 | 1.6 | 4.8 | 0.00 | 0.00 | 0.00 | 40 | 1006.2 |
| 20260504030015 | 16 | 23 | 1.6 | 6.4 | 0.00 | 0.00 | 0.00 | 37 | 1005.9 |
| 20260504023017 | 17 | 0.0 | 0.0 | 0.00 | 0.00 | 0.00 | 34 | 1005.2 | |
| 20260504020017 | 19 | 0.0 | 4.8 | 0.00 | 0.00 | 0.00 | 31 | 1004.8 | |
| 20260504013017 | 20 | 45 | 1.6 | 8.0 | 0.00 | 0.00 | 0.00 | 27 | 1004.8 |
| 20260504010017 | 19 | 45 | 3.2 | 12.9 | 0.00 | 0.00 | 0.00 | 28 | 1005.2 |
| 20260504003017 | 20 | 23 | 3.2 | 8.0 | 0.00 | 0.00 | 0.00 | 28 | 1005.3 |
| 20260504000016 | 20 | 23 | 3.2 | 12.9 | 0.00 | 0.00 | 0.00 | 28 | 1005.5 |
| 20260503233017 | 20 | 45 | 3.2 | 9.7 | 0.00 | 0.00 | 0.00 | 25 | 1005.7 |
| 20260503230117 | 21 | 338 | 4.8 | 16.1 | 0.00 | 0.00 | 0.00 | 27 | 1006.1 |
| 20260503223016 | 21 | 23 | 4.8 | 17.7 | 0.00 | 0.00 | 0.00 | 26 | 1006.6 |
| 20260503220016 | 20 | 338 | 6.4 | 24.1 | 0.00 | 0.00 | 0.00 | 27 | 1006.8 |
| 20260503213016 | 20 | 293 | 8.0 | 20.9 | 0.00 | 0.00 | 0.00 | 27 | 1007.2 |
| 20260503210036 | 20 | 315 | 8.0 | 19.3 | 0.00 | 0.00 | 0.00 | 27 | 1007.7 |
| 20260503203016 | 20 | 338 | 4.8 | 14.5 | 0.00 | 0.00 | 0.00 | 30 | 1008.1 |
| 20260503200016 | 18 | 338 | 8.0 | 22.5 | 0.00 | 0.00 | 0.00 | 32 | 1008.1 |
| 20260503193017 | 20 | 293 | 6.4 | 17.7 | 0.00 | 0.00 | 0.00 | 30 | 1008.7 |
| 20260503190016 | 18 | 338 | 6.4 | 17.7 | 0.00 | 0.00 | 0.00 | 32 | 1009.0 |
| 20260503183016 | 18 | 23 | 4.8 | 17.7 | 0.00 | 0.00 | 0.00 | 31 | 1009.9 |
| 20260503180116 | 18 | 23 | 6.4 | 19.3 | 0.00 | 0.00 | 0.00 | 32 | 1010.6 |
| 20260503173016 | 18 | 23 | 4.8 | 11.3 | 0.00 | 0.00 | 0.00 | 32 | 1011.2 |